{"data":{"norad_id":62016,"intl_designator":"2024-213J","name":"STARLINK-11393 [DTC]","alt_names":[],"object_type":"PAYLOAD","status":"ACTIVE","operator":null,"country":"US","launch_date":"2024-11-18","launch_site_code":"AFWTR","launch_vehicle":null,"mission":null,"orbit_class":"UNKNOWN","rcs_meters":null,"size_class":null,"mass_kg":null,"dimensions":null,"purposes":["comms"],"wikipedia_slug":null,"has_3d_model":false,"image_url":null,"decayed_at":null,"tle_current":{"epoch":"2026-09-21T21:13:14.400480Z","epoch_age_seconds":65894,"freshness":"FRESH","line1":"1 62016U 24213J   26264.88419445  .00171022  00000+0  13808-2 0  9994","line2":"2 62016  53.1575 153.8067 0001139 146.4465 213.6626 15.69827311105732","mean_motion":15.69827311,"eccentricity":0.0001139,"inclination_deg":53.1575,"raan_deg":153.8067,"arg_perigee_deg":146.4465,"mean_anomaly_deg":213.6626,"bstar":0.0013808,"rev_number":10573,"period_min":91.729834862072,"perigee_km":358.62366770008,"apogee_km":360.15847659491,"semimajor_km":6737.5280721475,"source":"CELESTRAK","updated_at":"2026-09-22T09:00:49.483684Z"}}}